www.pogodaiklimat.ru

Погода и климат >> Архив погоды >> Оман >> Sohar Majis


ПОГОДА в Sohar Majis

  • Прогноз погоды в Sohar Majis
  • Монитор погоды в Sohar Majis
  • Климат города

АРХИВ ПОГОДЫ в Sohar Majis

Время (UTC), дата Ветер
(напр.,м/с)
 
Видим.   Явления Облачность Т
(С)
Тd
(С)
f
(%)
Тe
(С)
Тes
(С)
Комфортность P
(гПа)
Po
(гПа)
Тmin
(С)
Tmax
(С)
R
(мм)
R24
(мм)
S
(см)
09 19.09 В 4 10 км ясно +32.1 +26.9 74 +50 +63 опасность
перегрева
1006.3 1006.1
12 19.09 В 4 н/о н/о +32.0 +26.8 74 +49 +49 опасность
перегрева
1005.1 1004.7
15 19.09 В 3 н/о н/о +30.4 +27.1 83 +48 +48 опасность
перегрева
1005.3 1004.9
18 19.09 ЮВ 2 н/о н/о +29.9 +27.3 86 +48 +48 опасность
перегрева
1006.3 1005.9 +32.8
21 19.09 Ю 1 н/о н/о +29.3 +26.6 85 +45 +45 опасность
перегрева
1004.4 1004.0
00 20.09 ЮВ 3 н/о н/о +29.1 +27.5 91 +47 +47 опасность
перегрева
1004.7 1004.2
03 20.09 Ю 1 н/о н/о +28.6 +26.7 89 +44 +44 опасность
перегрева
1006.5 1006.0
06 20.09 В 2 10 км ясно +31.8 +27.5 78 +51 +63 опасность
перегрева
1006.9 1006.7 +28.3
09 20.09 В 5 10 км ясно +32.7 +27.7 75 +52 +63 опасность
перегрева
1005.7 1005.5
12 20.09 В 4 10 км ясно +32.8 +27.8 75 +53 +57 опасность
перегрева
1004.2 1004.0
15 20.09 ЮВ 5 10 км ясно +30.4 +27.4 84 +49 +49 опасность
перегрева
1004.7 1004.5
18 20.09 Ю 2 10 км ясно +29.2 +27.4 90 +47 +47 опасность
перегрева
1006.0 1005.8 +33.3
21 20.09 ЮВ 2 н/о н/о +28.7 +26.8 89 +45 +45 опасность
перегрева
1005.5 1005.0
00 21.09 Ю 2 н/о н/о +28.0 +26.1 89 +42 +42 опасность
перегрева
1005.7 1005.2
03 21.09 ЮВ 2 н/о н/о +28.3 +26.0 87 +42 +42 опасность
перегрева
1007.2 1006.8
06 21.09 В 4 8000 м мгла ясно +31.1 +26.8 78 +48 +58 опасность
перегрева
1008.0 1007.8 +27.3
09 21.09 В 5 8000 м мгла ясно +32.9 +26.4 69 +50 +60 опасность
перегрева
1006.6 1006.4
12 21.09 В 4 н/о н/о +33.2 +27.0 70 +51 +51 опасность
перегрева
1005.7 1005.2
15 21.09 ЮВ 4 н/о н/о +30.6 +27.8 85 +50 +50 опасность
перегрева
1005.9 1005.4
18 21.09 Ю 1 н/о н/о +29.9 +26.1 80 +45 +45 опасность
перегрева
1007.1 1006.7 +33.6
21 21.09 ЮЗ 1 н/о н/о +29.6 +26.9 85 +46 +46 опасность
перегрева
1006.4 1006.0
00 22.09 Ю 1 н/о н/о +27.9 +26.5 92 +43 +43 опасность
перегрева
1006.6 1006.2
03 22.09 Ю 1 н/о н/о +28.0 +25.8 88 +42 +42 опасность
перегрева
1007.0 1006.5
06 22.09 В 2 н/о н/о +34.1 +24.1 56 +46 +46 опасность
перегрева
1008.5 1008.1 +27.8
09 22.09 В 5 н/о н/о +32.6 +26.5 70 +49 +49 опасность
перегрева
1007.3 1006.8
12 22.09 В 5 н/о н/о +33.3 +27.1 70 +52 +52 опасность
перегрева
1006.3 1005.9
15 22.09 ЮВ 2 н/о н/о +31.2 +24.9 69 +44 +44 опасность
перегрева
1006.9 1006.4
18 22.09 ЮВ 1 н/о н/о +29.5 +24.5 75 +42 +42 опасность
перегрева
1007.8 1007.4 +34.8
21 22.09 ЮЗ 1 н/о н/о +29.0 +26.4 86 +44 +44 опасность
перегрева
1007.9 1007.4
00 23.09 Ю 1 н/о н/о +28.6 +26.2 87 +43 +43 опасность
перегрева
1007.7 1007.3
03 23.09 ЮЗ 1 н/о н/о +28.0 +26.4 91 +43 +43 опасность
перегрева
1009.2 1008.8
06 23.09 В 3 8000 м мгла 3/3 450 м
[Sc]
+31.7 +27.5 78 +50 +58 опасность
перегрева
1010.1 1009.9 +26.7
09 23.09 В 5 8000 м мгла ясно +32.9 +27.9 75 +53 +63 опасность
перегрева
1008.6 1008.4
12 23.09 В 4 9000 м мгла ясно +32.9 +27.6 74 +53 +56 опасность
перегрева
1007.1 1006.9
15 23.09 В 1 9000 м мгла ясно +30.8 +28.0 85 +51 +51 опасность
перегрева
1007.5 1007.3
18 23.09 ЮВ 2 н/о н/о +30.0 +28.0 89 +50 +50 опасность
перегрева
1008.4 1008.0 +33.1
21 23.09 В 2 н/о н/о +29.8 +27.8 89 +49 +49 опасность
перегрева
1007.5 1007.0
00 24.09 ЮЗ 1 н/о н/о +29.2 +27.1 88 +46 +46 опасность
перегрева
1006.9 1006.4
03 24.09 Ю 1 н/о н/о +27.8 +26.0 90 +42 +42 опасность
перегрева
1007.8 1007.3
06 24.09 В 4 н/о н/о +31.8 +28.8 84 +54 +54 опасность
перегрева
1009.0 1008.5 +27.7
09 24.09 В 4 8000 м мгла 4/0
[Ci fib]
+33.7 +29.8 80 +60 +69 опасность
перегрева
1006.9 1006.7
12 24.09 ЮВ 5 8000 м мгла 4/1 900 м
[Sc diur, vesp Ac trans Ci sp]
+33.1 +28.5 77 +55 +58 опасность
перегрева
1005.3 1005.1
15 24.09 В 2 8000 м мгла 4/3 900 м
[Sc diur, vesp Ci fib]
+33.7 +24.0 57 +46 +46 опасность
перегрева
1006.2 1006.0
18 24.09 СЗ 2 н/о н/о +32.2 +26.9 74 +50 +50 опасность
перегрева
1007.8 1007.4 +34.1
21 24.09 Ю 2 н/о н/о +30.4 +21.9 60 +39 +39 очень
душно
1006.5 1006.1
00 25.09 Ю 2 н/о н/о +28.2 +18.6 56 +33 +33 очень
душно
1005.3 1004.9
03 25.09 ЮЗ 3 н/о н/о +35.0 +22.0 47 +33 +33 жарко 1006.3 1005.8
06 25.09 СВ 3 н/о н/о +34.8 +26.2 61 +51 +51 опасность
перегрева
1007.4 1006.9 +27.9
09 25.09 В 3 8000 м мгла ясно +35.6 +25.3 55 +49 +65 опасность
перегрева
1005.8 1005.6
12 25.09 В 2 н/о н/о +34.1 +25.5 61 +49 +49 опасность
перегрева
1004.1 1003.7
15 25.09 ЮВ 3 н/о н/о +33.1 +21.2 50 +41 +41 опасность
перегрева
1004.8 1004.4
18 25.09 С 2 н/о н/о +32.7 +27.7 75 +52 +52 опасность
перегрева
1006.7 1006.3 +36.2
21 25.09 З 1 н/о н/о +29.7 +27.1 86 +47 +47 опасность
перегрева
1005.8 1005.3
00 26.09 З 1 н/о н/о +29.3 +26.7 86 +46 +46 опасность
перегрева
1005.1 1004.7
03 26.09 штиль 0 н/о н/о +29.3 +20.9 61 +37 +37 очень
душно
1006.5 1006.1

 

Местоположение метеостанции Sohar Majis (Оман): широта 24.47 долгота 56.63 высота над уровнем моря 4 м.

В архиве по умолчанию представлена погода в Sohar Majis за последнюю неделю. Архивные данные за месяц целиком и за предыдущие месяцы, начиная с января 2011 года, Вы можете получить, выбрав интересующий диапазон дат из раскрывающегося списка и нажав кнопку "Ввод!".


*Определитесь, кто Вы:
робот инопланетянин человек

Внимание! Время в таблицах - всемирное. Для получения местного времени необходимо прибавить поправку, которая в Sohar Majis равна 4 ч.

Смотрите также архив погоды в соседних городах и на ближайших метеорологических станциях:

Погода в Qumayra (Оман) (74 км)
Погода в Fujairah (ОАЭ) (76 км)
Погода в Buraimi (Оман) (90 км)
Погода в Suwaiq (Оман) (97 км)
Погода в Al Ain Int Airport (ОАЭ) (107 км)
Погода в Ibri (Оман) (117 км)
Погода в Diba (Оман) (134 км)
Погода в Rustaq (Оман) (144 км)
Погода в Ras Al Khaimah Int Airport (ОАЭ) (146 км)
Погода в Sharjah (ОАЭ) (147 км)

Пояснения к столбцам:

Ветер - указаны скорость ветра в м/с - средняя за 10 мин, порывы в срок и между сроками (в фигурных скобках) и направление, откуда дует ветер: С - северный, СВ - северо-восточный, В - восточный, ЮВ - юго-восточный, Ю - южный, ЮЗ - юго-западный, З - западный, СЗ - северо-западный.
Видимость - горизонтальная дальность видимости в метрах или километрах. При видимости от 1 до 10 км при отсутствии осадков обычно наблюдается дымка, при ухудшении видимости до 1 км и менее - туман. В сухую погоду видимость может ухудшаться дымом, пылью или мглою.
Явления - указаны атмосферные явления, наблюдавшиеся в срок или в последний час перед сроком; фигурными скобками обозначены явления, наблюдавшиеся между сроками (за 1-3 часа до срока); квадратными скобками обозначены град или гололедные отложения с указанием их диаметра в мм.
Облачность - указаны через наклонную черту общая и нижняя облачность в баллах и высота нижней границы облаков в метрах; квадратными скобками обозначены формы облаков: Ci - перистые, Cs - перисто-слоистые, Cc - перисто-кучевые, Ac - высококучевые, As - высокослоистые, Sc - слоисто-кучевые, Ns - слоисто-дождевые, Cu - кучевые, Cb - кучево-дождевые. Подробнее классификацию облаков см. в Атласе облаков (PDF).
T - Температура воздуха - температура, измеренная на высоте 2 м над землей.
Td - Температура точки росы - температура, при понижении до которой содержащийся в воздухе водяной пар достигнет насыщения.
f - Относительная влажность воздуха - влажноcть воздуха, измеренная на высоте 2 м над землей.
Te - Эффективная температура - температура, которую ощущает одетый по сезону человек в тени. Характеристика душности погоды. При расчете учитывается влияние влажности воздуха и скорости ветра на теплоощущения человека.
Tes - Эффективная температура на солнце - температура, которую ощущает человек, с поправкой на солнечный нагрев. Характеристика знойности погоды. Зависит от высоты солнца над горизонтом, облачности и скорости ветра. Ночью, в пасмурную погоду, а также при ветре 12 м/с и более поправка равна нулю.
P - Атмосферное давление - приведенное к уровню моря атмосферное давление.
Po - Атмосферное давление - измеренное на уровне метеостанции атмосферное давление.
Tmin - Минимальная температура - минимум температуры воздуха на высоте 2 м над землей.
Tmax - Максимальная температура - максимум температуры воздуха на высоте 2 м над землей.
R - Количество осадков - Количество выпавших осадков за период времени, мм. При наведении курсора мыши на число - период времени, за который выпало указанное количество осадков.
R24 - Количество осадков - Количество выпавших осадков за 24 часа, мм.
S - Снежный покров - Высота снежного покрова, см. При наведении курсора мыши на число - состояние снежного покрова и степень покрытия местности в баллах.